Sign In / Sign Up
 
 
Ocean Inside Regatta. Leg 3. 17/12 - 23/12



Race Date (UTC) # I place II place III place Track
Race3003 2018-12-20 23:05:15 8 WINDFUCKER HotTuna! SY MILENE
Race3002 2018-12-20 23:03:29 8 Victory Nik frida antifa 3.56.90
Race3001 2018-12-20 23:02:35 8 _---_ Superyacht BeteNoir
Race3000 2018-12-20 23:00:26 8 A28 PRADA45 Palentino
Race2999 2018-12-20 22:58:38 4 SY MILENE almyel Sud_Sicily_
Race2998 2018-12-20 22:56:48 8 TONICA Nik jimmyT
Race2997 2018-12-20 22:56:14 8 A28 Mangusta03:55 BRA 48
Race2996 2018-12-20 22:55:06 8 _---_ Stealth SicilyKayak
Race2995 2018-12-20 22:53:41 4 PRADA45 Musashi alfaya
Race2994 2018-12-20 22:53:03 2 almyel Sud_Sicily_
Race2993 2018-12-20 22:51:00 8 Nik TONICA Victory
Race2992 2018-12-20 22:50:19 8 BeteNoir Strbrd cales
Race2991 2018-12-20 22:47:48 8 Stealth So What STEX
Race2990 2018-12-20 22:45:05 8 PESCARA1 almyel Mary Stuart
Race2989 2018-12-20 22:44:24 8 BRA 48 A28 RCLaser27
Race2988 2018-12-20 22:42:25 8 Strbrd BeteNoir cales
Race2987 2018-12-20 22:40:10 8 PESCARA1 Mary Stuart Tara
Race2986 2018-12-20 22:38:54 8 Axilla Twist Stealth
Race2985 2018-12-20 22:38:12 8 Superyacht frida antifa 3.56.90 A28
Race2984 2018-12-20 22:36:32 8 WINDFUCKER Зюзя BeteNoir
Race2983 2018-12-20 22:34:50 8 Berkut1020 PESCARA1 STEX
Race2982 2018-12-20 22:33:31 8 almyel Valentina Victory
Race2981 2018-12-20 22:31:36 8 frida antifa 3.56.90 _---_ Superyacht
Race2980 2018-12-20 22:30:32 8 Twist Y.C. Tempio Pausania Зюзя
Race2979 2018-12-20 22:29:20 8 PESCARA1 Berkut1020 STEX
Race2978 2018-12-20 22:27:55 3 JUHNKSHO uncletony gioslay
Race2977 2018-12-20 22:26:40 8 Axilla Nik Victory
Race2976 2018-12-20 22:25:50 8 frida antifa 3.56.90 SAKURA smiling parrot
Race2975 2018-12-20 22:25:13 2 Nik -
Race2974 2018-12-20 22:24:06 8 Twist Stealth _---_
Race2973 2018-12-20 22:22:09 8 Inutil Berkut1020 OCS RS
Race2972 2018-12-20 22:20:59 8 Mary Stuart Зюзя almyel
Race2971 2018-12-20 22:20:34 8 Ivan Superyacht SicilyKayak
Race2970 2018-12-20 22:18:44 8 frida antifa 3.56.90 WLF Sailing Team smiling parrot
Race2969 2018-12-20 22:17:54 8 Twist _---_ chokotoff
Race2968 2018-12-20 22:16:08 7 DIEMSailing Nik Victory
Race2967 2018-12-20 22:14:43 8 Axilla Mary Stuart almyel
Race2966 2018-12-20 22:14:17 8 Dannato F18 Superyacht SAKURA
Race2965 2018-12-20 22:12:20 8 smiling parrot A28 frida antifa 3.56.90
Race2964 2018-12-20 22:10:37 8 Stealth Ivan Twist
Race2963 2018-12-20 22:09:54 8 A-GRE_9 Valentina Telbuoy
Race2962 2018-12-20 22:08:32 8 Axilla Mary Stuart Vistona THE EQUALIZER
Race2961 2018-12-20 22:06:40 8 frida antifa 3.56.90 smiling parrot Yacht
Race2960 2018-12-20 22:05:13 2 Terraphobia gioslay
Race2959 2018-12-20 22:04:26 8 Globus Telbuoy RobaDaPazzi
Race2958 2018-12-20 22:03:00 8 almyel HK Cube Axilla
Race2957 2018-12-20 22:01:51 8 0 Tituli Maggiflasch
Race2956 2018-12-20 21:59:57 8 youppi03:50:40 Berkut1020 marty909
Race2955 2018-12-20 21:58:25 8 Yacht chokotoff Telbuoy
Race2954 2018-12-20 21:57:22 8 Indefensible JLS_1_3:58:50 SicilyKayak
Race2953 2018-12-20 21:55:11 8 Victory STEX tribord 06
Race2952 2018-12-20 21:53:05 8 PESCARA0 Berkut1020 youppi03:50:40
Race2951 2018-12-20 21:52:00 8 chokotoff Telbuoy Silver Bullet
Race2950 2018-12-20 21:50:47 8 uncletony Globus Indefensible
Race2949 2018-12-20 21:49:39 4 juliet kletz Twist
Race2948 2018-12-20 21:47:44 8 Vistona THE EQUALIZER Muf ITA266
Race2947 2018-12-20 21:47:01 6 BORA RN Dream Strina
Race2946 2018-12-20 21:44:12 8 Telbuoy Valentina Sambaqui man
Race2945 2018-12-20 21:43:17 8 Muf Victory kletz
Race2944 2018-12-20 21:41:26 8 ITA266 smiling parrot juliet
Race2943 2018-12-20 21:38:50 8 ___ BORA RN Strina
Race2942 2018-12-20 21:37:39 8 A28 e tandu Ptibato
Race2941 2018-12-20 21:35:09 8 Eureka IV Victory Muf
Race2940 2018-12-20 21:34:25 8 BORA RN old school 7012
Race2939 2018-12-20 21:32:37 8 youppi03:50:40 PESCARA0 Helga
Race2938 2018-12-20 21:31:41 8 Vistona THE EQUALIZER ___ Valentina
Race2937 2018-12-20 21:30:55 8 Muf WONLOVE AK14
Race2936 2018-12-20 21:29:15 8 Berkut1020 astea skyandsea
Race2935 2018-12-20 21:28:38 8 ITA 24 old school BORA RN
Race2934 2018-12-20 21:27:41 8 Gunter 2539 e tandu kudasai
Race2933 2018-12-20 21:26:25 8 jonatan41 PESCARA0 Kona two
Race2932 2018-12-20 21:25:47 8 Valentina Strina Dream
Race2931 2018-12-20 21:24:21 6 Berkut1020 Express 149 First
Race2930 2018-12-20 21:23:10 8 RCLaser27 SonOfWhoreVistona Sardineta
Race2929 2018-12-20 21:21:18 8 old school Helga ITA266
Race2928 2018-12-20 21:20:19 8 FRAM jonatan41 risiko
Race2927 2018-12-20 21:19:24 8 PESCARA0 HK Cube ___
Race2926 2018-12-20 21:18:24 8 SEA WORD Yoxi 333 Strina
Race2925 2018-12-20 21:17:17 8 Globus Eureka IV Sardineta
Race2924 2018-12-20 21:15:40 8 heidi Indefensible rs
Race2923 2018-12-20 21:14:21 8 BORA RN sunseeker GRACIE
Race2922 2018-12-20 21:12:13 8 jonatan41 youppi03:50:40 Kona two
Race2921 2018-12-20 21:11:27 8 ventomareiro Sardineta Globus
Race2920 2018-12-20 21:08:54 8 SonOfWhoreVistona west First
Race2919 2018-12-20 21:06:28 8 jonatan41 ITA266 skyandsea
Race2918 2018-12-20 21:05:12 8 ventomareiro Globus star6546
Race2917 2018-12-20 21:04:01 8 Berkut1020 Sardineta PESCARA0
Race2916 2018-12-20 21:02:16 8 Eureka IV west AGATA 9
Race2915 2018-12-20 21:00:37 2 risiko DIO
Race2914 2018-12-20 20:59:31 8 youppi03:50:40 HK Cube Helga
Race2913 2018-12-20 20:58:25 8 RCLaser27 Hannon & Himilcon not2bad
Race2912 2018-12-20 20:57:17 8 Sardineta PESCARA0 scorch
Race2911 2018-12-20 20:56:13 8 SonOfWhoreVistona amande west
Race2910 2018-12-20 20:54:26 3 Eureka IV SicilyKayak Teo ita 2006
Race2909 2018-12-20 20:53:38 2 liukliuk Eureka IV
Race2908 2018-12-20 20:52:10 8 Hannon & Himilcon GRACIE Helga
Race2907 2018-12-20 20:51:41 8 RCLaser27 Ar Vag 2
Race2906 2018-12-20 20:50:52 8 SonOfWhoreVistona jonatan41 scorch
Race2905 2018-12-20 20:50:12 2 amande Pacaypalla
Race2904 2018-12-20 20:48:52 8 Globus west TRICK